www.pogodaiklimat.ru

Погода и климат >> Архив погоды >> Индонезия >> Пангкалан-Бун


ПОГОДА в Пангкалан-Буне

  • Прогноз погоды в Пангкалан-Буне
  • Монитор погоды в Пангкалан-Буне

АРХИВ ПОГОДЫ в Пангкалан-Буне

Время (UTC), дата Ветер
(напр.,м/с)
 
Видим.   Явления Облачность Т
(С)
Тd
(С)
f
(%)
Тe
(С)
Тes
(С)
Комфортность P
(гПа)
Po
(гПа)
Тmin
(С)
Tmax
(С)
R
(мм)
R24
(мм)
S
(см)
15 14.07 штиль 0 7000 м 4/1 360 м
[Sc As trans Ci fib]
+23.0 +19.8 82 +30 +30 очень
душно
1012.4 1009.1
18 14.07 штиль 0 7000 м 4/1 360 м
[Sc As trans Ci fib]
+22.0 +22.0 100 +29 +29 очень
душно
1011.2 1008.0
21 14.07 штиль 0 7000 м 4/1 360 м
[Sc As trans Ci fib]
+21.3 +19.2 88 +26 +26 душно 1010.4 1007.2
00 15.07 штиль 0 9000 м 4/1 360 м
[Sc As trans Ci fib]
+21.5 +19.7 89 +27 +29 душно 1012.0 1008.8 +19.6
03 15.07 В 4 10 км 6/5 360 м
[Sc As trans Ci fib]
+29.3 +20.6 59 +36 +41 очень
душно
1012.1 1008.8
06 15.07 В 4 10 км 8/6 360 м
[Sc As trans Ci fib]
+31.1 +19.6 50 +37 +40 очень
душно
1009.8 1006.6
09 15.07 Ю 2 10 км 6/5 360 м
[Sc As op Ci fib]
+30.2 +20.9 58 +38 +39 очень
душно
1008.5 1005.3
12 15.07 Ю 2 7000 м 6/4 360 м
[Sc As op Ci fib]
+27.2 +21.6 71 +35 +35 очень
душно
1010.2 1007.0 +31.4
15 15.07 ЮВ 2 6000 м 4/3 360 м
[Sc As trans Ci fib]
+24.0 +21.8 88 +31 +31 очень
душно
1012.4 1009.2
18 15.07 ЮВ 2 6000 м 4/3 360 м
[Sc As trans Ci fib]
+23.2 +21.6 91 +31 +31 очень
душно
1011.7 1008.4
21 15.07 штиль 0 3000 м дымка 4/3 360 м
[Sc As trans Ci fib]
+21.8 +20.2 91 +28 +28 душно 1011.2 1008.0
00 16.07 ЮВ 2 9000 м 6/4 360 м
[Sc As trans Ci fib]
+23.2 +21.9 92 +31 +33 очень
душно
1012.7 1009.4 +21.0
03 16.07 ЮВ 5 10 км 6/4 360 м
[Sc As trans Ci fib]
+29.5 +21.6 63 +38 +42 очень
душно
1012.1 1008.8
06 16.07 ЮВ 4 10 км 6/4 360 м
[Sc As trans Ci fib]
+30.0 +21.9 62 +39 +44 очень
душно
1009.5 1006.3
09 16.07 ЮВ 4 10 км 6/4 360 м
[Sc As op Ci fib]
+29.8 +22.1 63 +38 +39 очень
душно
1008.1 1004.9
12 16.07 ЮВ 2 6000 м 6/4 360 м
[Sc As op Ci fib]
+26.6 +21.8 75 +34 +34 очень
душно
1009.4 1006.2 +30.6
15 16.07 ЮВ 2 6000 м 6/4 360 м
[Sc As trans Ci fib]
+24.1 +21.9 88 +31 +31 очень
душно
1010.4 1007.2
18 16.07 ЮВ 2 6000 м 6/4 360 м
[Sc As trans Ci fib]
+23.0 +21.4 91 +31 +31 очень
душно
1010.7 1007.4
21 16.07 штиль 0 6000 м 6/4 360 м
[Sc As trans Ci fib]
+22.1 +20.8 92 +28 +28 душно 1010.8 1007.6
00 17.07 штиль 0 8000 м 6/4 360 м
[Sc As trans Ci fib]
+21.7 +20.5 93 +27 +29 душно 1010.9 1007.7 +21.2
03 17.07 ЮВ 8 10 км 9/5 360 м
[Sc Ac As Ci fib]
+28.2 +21.3 66 +36 +37 очень
душно
1011.0 1007.8
06 17.07 ЮВ 5 10 км 9/6 330 м
[Cu med, cong As op Ci fib]
+30.4 +21.5 59 +38 +41 очень
душно
1008.9 1005.7
09 17.07 ЮВ 3 10 км 8/5 330 м
[Cu med, cong As op Ci fib]
+29.2 +21.8 64 +37 +38 очень
душно
1007.6 1004.3
12 17.07 ЮВ 4 6000 м 6/4 330 м
[Sc As trans Ci fib]
+25.8 +21.9 79 +33 +33 очень
душно
1008.7 1005.4 +30.8
15 17.07 ЮВ 2 6000 м 6/4 330 м
[Sc As op Ci fib]
+24.6 +22.1 86 +32 +32 очень
душно
1010.0 1006.8
18 17.07 ЮВ 2 6000 м 6/4 330 м
[Sc As op Ci fib]
+23.4 +22.1 92 +32 +32 очень
душно
1009.7 1006.5
21 17.07 штиль 0 6000 м 6/3 330 м
[Sc As op Ci fib]
+23.2 +21.9 92 +31 +31 очень
душно
1009.1 1005.8
00 18.07 ЮВ 2 10 км 6/4 360 м
[Sc As op Ci fib]
+23.8 +22.5 92 +31 +32 очень
душно
1010.2 1007.0 +23.2
03 18.07 В 6 10 км 9/6 330 м
[Cu med, cong As op Ci fib]
+29.6 +22.9 67 +39 +41 очень
душно
1009.9 1006.7
06 18.07 ЮВ 5 10 км 9/6 330 м
[Cu med, cong As op Ci fib]
+31.8 +22.5 58 +41 +44 опасность
перегрева
1007.5 1004.3
09 18.07 В 3 9000 м {дождь} 9/6 360 м
[Cu med, cong As op Ci fib]
+29.6 +24.7 75 +42 +43 опасность
перегрева
1006.4 1003.2 0.6
12 18.07 ЮВ 2 7000 м {дождь} 9/5 360 м
[Cu med, cong As op Ci fib]
+27.0 +23.7 82 +37 +37 очень
душно
1007.8 1004.6 0.6
15 18.07 штиль 0 6000 м 9/5 360 м
[Sc As op Ci fib]
+25.8 +24.0 90 +36 +36 очень
душно
1009.6 1006.3
18 18.07 штиль 0 6000 м 9/5 360 м
[Sc As op Ci fib]
+25.2 +23.5 90 +34 +34 очень
душно
1009.0 1005.8
21 18.07 штиль 0 6000 м 9/5 360 м
[Sc As op Ci fib]
+25.1 +23.6 91 +34 +34 очень
душно
1007.9 1004.7
00 19.07 В 2 6000 м 9/4 360 м
[Sc Ac As Ci sp]
+24.8 +23.8 94 +34 +35 очень
душно
1009.2 1006.0 +24.5 0.6
03 19.07 В 4 9000 м 9/6 330 м
[Sc As op Ci sp]
+28.0 +23.9 78 +39 +41 очень
душно
1009.5 1006.3
06 19.07 СВ 3 9000 м 9/6 330 м
[Cu med, cong As trans Ci fib]
+31.0 +24.1 67 +43 +46 опасность
перегрева
1007.5 1004.3
09 19.07 В 3 10 км 9/6 330 м
[Cu med, cong As op Ci fib]
+31.2 +23.7 64 +42 +43 опасность
перегрева
1006.7 1003.5
12 19.07 Ю 3 10 км 9/6 360 м
[Cu med, cong As op Ci fib]
+28.4 +25.5 84 +42 +42 опасность
перегрева
1008.6 1005.4 +33.8
15 19.07 ЮВ 2 6000 м 9/6 360 м
[Cu med, cong As op Ci fib]
+26.8 +25.0 90 +39 +39 очень
душно
1010.1 1006.9
18 19.07 ЮВ 2 6000 м гроза без осадков 9/6 360 м
[Cb calv As op Ci fib]
+26.2 +25.1 94 +38 +38 очень
душно
1009.5 1006.2
21 19.07 В 2 6000 м {гроза, дождь} 9/6 360 м
[Sc As op Ci fib]
+26.0 +25.1 95 +37 +37 очень
душно
1009.0 1005.7 1
00 20.07 В 2 8000 м {гроза, дождь} 9/6 360 м
[Sc As op Ci fib]
+26.2 +25.2 94 +38 +38 очень
душно
1010.6 1007.3 +24.2 1
03 20.07 В 4 9000 м 9/6 360 м
[Cu med, cong As op Ci fib]
+30.0 +24.2 71 +42 +44 опасность
перегрева
1010.2 1007.0
06 20.07 ЮВ 3 9000 м 9/6 360 м
[Cu med, cong As op Ci fib]
+31.2 +25.8 73 +46 +50 опасность
перегрева
1007.4 1004.2 0.0
09 20.07 штиль 0 7000 м слаб. морось {дождь} 9/6 360 м
[Cb calv As op Ci fib]
+26.4 +25.2 93 +38 +39 очень
душно
1007.2 1003.9 5
12 20.07 ЮВ 2 6000 м в посл. час дождь 9/6 360 м
[Cu med, cong As op Ci fib]
+26.2 +24.7 91 +37 +37 очень
душно
1008.5 1005.2 +33.0 1
15 20.07 штиль 0 6000 м 8/5 360 м
[Sc As op Ci fib]
+25.2 +24.2 94 +35 +35 очень
душно
1009.8 1006.6
18 20.07 штиль 0 6000 м 8/5 300 м
[Sc As op Ci fib]
+25.3 +24.5 95 +35 +35 очень
душно
1009.0 1005.8
21 20.07 штиль 0 н/о 8/5 360 м
[Sc As op Ci fib]
+25.2 +24.2 94 +35 +35 очень
душно
1004.9 1004.9
00 21.07 штиль 0 5000 м 9/6 360 м
[Sc As op Ci fib]
+26.2 +24.7 91 +37 +38 очень
душно
1010.0 1006.7 +25.0 6
03 21.07 В 6 9000 м 9/6 330 м
[Cu med, cong As op Ci fib]
+30.0 +23.9 70 +41 +43 опасность
перегрева
1010.2 1007.0
06 21.07 штиль 0 9000 м в посл. час дождь 9/6 330 м
[Cb calv As op Ci fib]
+28.6 +26.0 86 +43 +49 опасность
перегрева
1008.1 1004.8 4
09 21.07 штиль 0 9000 м 9/6 330 м
[Cb calv As op Ci fib]
+27.0 +24.9 88 +39 +39 очень
душно
1007.2 1004.0
12 21.07 ЮВ 2 6000 м 9/6 330 м
[Cu med, cong As op Ci fib]
+25.8 +23.4 87 +35 +35 очень
душно
1009.1 1005.8 +30.4

 

Местоположение метеостанции Пангкалан-Бун (Индонезия): широта -2.70 долгота 111.70 высота над уровнем моря 25 м.

В архиве по умолчанию представлена погода в Пангкалан-Буне за последнюю неделю. Архивные данные за месяц целиком и за предыдущие месяцы, начиная с января 2011 года, Вы можете получить, выбрав интересующий диапазон дат из раскрывающегося списка и нажав кнопку "Ввод!".


*Определитесь, кто Вы:
робот инопланетянин человек

Внимание! Время в таблицах - всемирное. Для получения местного времени необходимо прибавить поправку, которая равна 7 ч.

Смотрите также архив погоды в соседних городах и на ближайших метеорологических станциях:

Погода в Кетапанге (Индонезия) (215 км)
Погода в Нангапинохе (Индонезия) (262 км)
Погода в Синтанге (Индонезия) (314 км)
Погода в Паоанкарая (Индонезия) (318 км)
Погода в Банджармасине (Индонезия) (348 км)
Погода в Сангкапуре (Индонезия) (365 км)
Погода в Понтианаке (Индонезия) (382 км)
Погода в Муаратевехе (Индонезия) (406 км)
Погода на Путусиббау (Индонезия) (417 км)
Погода в Танджунгпандане (Индонезия) (439 км)

Пояснения к столбцам:

Ветер - указаны скорость ветра в м/с - средняя за 10 мин, порывы в срок и между сроками (в фигурных скобках) и направление, откуда дует ветер: С - северный, СВ - северо-восточный, В - восточный, ЮВ - юго-восточный, Ю - южный, ЮЗ - юго-западный, З - западный, СЗ - северо-западный.
Видимость - горизонтальная дальность видимости в метрах или километрах. При видимости от 1 до 10 км при отсутствии осадков обычно наблюдается дымка, при ухудшении видимости до 1 км и менее - туман. В сухую погоду видимость может ухудшаться дымом, пылью или мглою.
Явления - указаны атмосферные явления, наблюдавшиеся в срок или в последний час перед сроком; фигурными скобками обозначены явления, наблюдавшиеся между сроками (за 1-3 часа до срока); квадратными скобками обозначены град или гололедные отложения с указанием их диаметра в мм.
Облачность - указаны через наклонную черту общая и нижняя облачность в баллах и высота нижней границы облаков в метрах; квадратными скобками обозначены формы облаков: Ci - перистые, Cs - перисто-слоистые, Cc - перисто-кучевые, Ac - высококучевые, As - высокослоистые, Sc - слоисто-кучевые, Ns - слоисто-дождевые, Cu - кучевые, Cb - кучево-дождевые. Подробнее классификацию облаков см. в Атласе облаков (PDF).
T - Температура воздуха - температура, измеренная на высоте 2 м над землей.
Td - Температура точки росы - температура, при понижении до которой содержащийся в воздухе водяной пар достигнет насыщения.
f - Относительная влажность воздуха - влажноcть воздуха, измеренная на высоте 2 м над землей.
Te - Эффективная температура - температура, которую ощущает одетый по сезону человек в тени. Характеристика душности погоды. При расчете учитывается влияние влажности воздуха и скорости ветра на теплоощущения человека.
Tes - Эффективная температура на солнце - температура, которую ощущает человек, с поправкой на солнечный нагрев. Характеристика знойности погоды. Зависит от высоты солнца над горизонтом, облачности и скорости ветра. Ночью, в пасмурную погоду, а также при ветре 12 м/с и более поправка равна нулю.
P - Атмосферное давление - приведенное к уровню моря атмосферное давление.
Po - Атмосферное давление - измеренное на уровне метеостанции атмосферное давление.
Tmin - Минимальная температура - минимум температуры воздуха на высоте 2 м над землей.
Tmax - Максимальная температура - максимум температуры воздуха на высоте 2 м над землей.
R - Количество осадков - Количество выпавших осадков за период времени, мм. При наведении курсора мыши на число - период времени, за который выпало указанное количество осадков.
R24 - Количество осадков - Количество выпавших осадков за 24 часа, мм.
S - Снежный покров - Высота снежного покрова, см. При наведении курсора мыши на число - состояние снежного покрова и степень покрытия местности в баллах.